GPS BIIF-3 (PRN 24)

Last updated on July 6, 2021, 3:39 p.m. UTC

1 38833U 12053A   21185.97239364  .00000081  00000-0  00000-0 0  9995
2 38833  53.5709 217.5980 0110340  41.6661 319.2415  2.00557353 63173
UTC
Height (km)
Latitude
Longitude
Inclination
Orbital Period
UTC large
Height (km)
Speed (km/s)
/
Latitude / Longitude
Inclination (degrees)
Orbital Period (minutes)
Azimuth
Elevation
Range (km)
Doppler Factor
iOS Compass Heading
iOS Angle